contact:dominique.lefevre@mio.osupytheas.fr, maurice.libes@osupytheas.fr, didier.mallarino@osupytheas.fr
Project:EMSO http://www.emso-fr.org/EMSO-France
Depth: 2436.0 m
Title:EMSO Ligure Ouest : Data MII capteur CSTAR
DateTime,Latitude,Longitude,Instrument_Serial,Reference_Counts,Signal_Counts,Corrected_Signal_raw_counts,Calculated_Beam_c_inverse_meters,Internal_thermistor_counts
DateTime,Latitude,Longitude,Instrument_Serial,Reference_Counts,Signal_Counts,Corrected_Signal_raw_counts,Calculated_Beam_c_inverse_meters,Internal_thermistor_counts
2019-07-09T00:00:12,42.805,6.029,CST-1368DR,8734,12216,15479,0.035,551
2019-07-09T00:03:13,42.805,6.029,CST-1368DR,8734,12218,15482,0.034,551
2019-07-09T00:06:15,42.805,6.029,CST-1368DR,8734,12216,15480,0.035,551
2019-07-09T00:09:16,42.805,6.029,CST-1368DR,8734,12219,15483,0.034,551
2019-07-09T00:12:17,42.805,6.029,CST-1368DR,8734,12218,15482,0.034,551
2019-07-09T00:15:19,42.805,6.029,CST-1368DR,8734,12219,15483,0.034,551
2019-07-09T00:18:20,42.805,6.029,CST-1368DR,8734,12220,15484,0.034,551
2019-07-09T00:21:22,42.805,6.029,CST-1368DR,8734,12221,15485,0.034,551
2019-07-09T00:24:23,42.805,6.029,CST-1368DR,8734,12217,15480,0.035,551
2019-07-09T00:27:24,42.805,6.029,CST-1368DR,8734,12220,15484,0.034,551
2019-07-09T00:30:26,42.805,6.029,CST-1368DR,8734,12219,15483,0.034,551
2019-07-09T00:33:27,42.805,6.029,CST-1368DR,8734,12216,15479,0.035,551
2019-07-09T00:36:29,42.805,6.029,CST-1368DR,8734,12219,15482,0.034,551
2019-07-09T00:39:30,42.805,6.029,CST-1368DR,8734,12220,15484,0.034,551
2019-07-09T00:42:31,42.805,6.029,CST-1368DR,8734,12218,15481,0.035,551
2019-07-09T00:45:33,42.805,6.029,CST-1368DR,8734,12219,15483,0.034,551
2019-07-09T00:48:34,42.805,6.029,CST-1368DR,8734,12219,15483,0.034,551
2019-07-09T00:51:36,42.805,6.029,CST-1368DR,8734,12221,15485,0.034,551
2019-07-09T00:54:37,42.805,6.029,CST-1368DR,8734,12219,15483,0.034,551
2019-07-09T00:57:39,42.805,6.029,CST-1368DR,8734,12219,15483,0.034,551
2019-07-09T01:00:40,42.805,6.029,CST-1368DR,8734,12215,15478,0.036,551
2019-07-09T01:03:41,42.805,6.029,CST-1368DR,8734,12216,15479,0.035,550
2019-07-09T01:06:43,42.805,6.029,CST-1368DR,8733,12220,15486,0.033,551
2019-07-09T01:09:44,42.805,6.029,CST-1368DR,8733,12217,15482,0.034,551
2019-07-09T01:12:46,42.805,6.029,CST-1368DR,8733,12202,15463,0.039,550
2019-07-09T01:15:47,42.805,6.029,CST-1368DR,8733,12219,15484,0.034,551
2019-07-09T01:18:48,42.805,6.029,CST-1368DR,8734,12215,15478,0.036,551
2019-07-09T01:21:50,42.805,6.029,CST-1368DR,8733,12206,15468,0.038,551
2019-07-09T01:24:51,42.805,6.029,CST-1368DR,8733,12216,15481,0.035,551
2019-07-09T01:27:53,42.805,6.029,CST-1368DR,8733,12216,15481,0.035,551
2019-07-09T01:30:54,42.805,6.029,CST-1368DR,8733,12216,15480,0.035,550
2019-07-09T01:33:55,42.805,6.029,CST-1368DR,8733,12208,15470,0.038,551
2019-07-09T01:36:57,42.805,6.029,CST-1368DR,8733,12216,15481,0.035,551
2019-07-09T01:39:58,42.805,6.029,CST-1368DR,8733,12219,15484,0.034,551
2019-07-09T01:43:00,42.805,6.029,CST-1368DR,8733,12202,15463,0.039,551
2019-07-09T01:46:01,42.805,6.029,CST-1368DR,8733,12218,15483,0.034,551
2019-07-09T01:49:02,42.805,6.029,CST-1368DR,8733,12216,15481,0.035,551
2019-07-09T01:52:04,42.805,6.029,CST-1368DR,8733,12215,15479,0.035,551
2019-07-09T01:55:05,42.805,6.029,CST-1368DR,8733,12216,15480,0.035,551
2019-07-09T01:58:07,42.805,6.029,CST-1368DR,8733,12218,15483,0.034,551
2019-07-09T02:01:08,42.805,6.029,CST-1368DR,8733,12212,15476,0.036,550
2019-07-09T02:04:10,42.805,6.029,CST-1368DR,8733,12218,15483,0.034,551
2019-07-09T02:07:11,42.805,6.029,CST-1368DR,8733,12218,15484,0.034,551
2019-07-09T02:10:12,42.805,6.029,CST-1368DR,8733,12218,15483,0.034,551
2019-07-09T02:13:14,42.805,6.029,CST-1368DR,8733,12218,15483,0.034,550
2019-07-09T02:16:15,42.805,6.029,CST-1368DR,8733,12217,15482,0.034,551
2019-07-09T02:19:17,42.805,6.029,CST-1368DR,8733,12217,15482,0.034,551
2019-07-09T02:22:18,42.805,6.029,CST-1368DR,8733,12216,15481,0.035,551
2019-07-09T02:25:19,42.805,6.029,CST-1368DR,8733,12216,15481,0.035,551
2019-07-09T02:28:21,42.805,6.029,CST-1368DR,8733,12217,15482,0.034,551
2019-07-09T02:31:22,42.805,6.029,CST-1368DR,8733,12219,15485,0.034,551
2019-07-09T02:34:24,42.805,6.029,CST-1368DR,8733,12218,15483,0.034,551
2019-07-09T02:37:25,42.805,6.029,CST-1368DR,8733,12214,15479,0.035,550
2019-07-09T02:40:26,42.805,6.029,CST-1368DR,8733,12214,15479,0.035,551
2019-07-09T02:43:28,42.805,6.029,CST-1368DR,8733,12217,15482,0.034,551
2019-07-09T02:46:29,42.805,6.029,CST-1368DR,8733,12218,15483,0.034,551
2019-07-09T02:49:31,42.805,6.029,CST-1368DR,8733,12214,15479,0.035,551
2019-07-09T02:52:32,42.805,6.029,CST-1368DR,8733,12216,15480,0.035,551
2019-07-09T02:55:33,42.805,6.029,CST-1368DR,8732,12212,15477,0.036,551
2019-07-09T02:58:35,42.805,6.029,CST-1368DR,8732,12216,15482,0.034,551
2019-07-09T03:01:36,42.805,6.029,CST-1368DR,8732,12216,15482,0.034,550
2019-07-09T03:04:38,42.805,6.029,CST-1368DR,8732,12216,15482,0.034,551
2019-07-09T03:07:39,42.805,6.029,CST-1368DR,8732,12212,15477,0.036,551
2019-07-09T03:10:41,42.805,6.029,CST-1368DR,8732,12216,15482,0.034,551
2019-07-09T03:13:42,42.805,6.029,CST-1368DR,8732,12216,15483,0.034,551
2019-07-09T03:16:43,42.805,6.029,CST-1368DR,8732,12216,15483,0.034,551
2019-07-09T03:19:45,42.805,6.029,CST-1368DR,8732,12215,15482,0.034,551
2019-07-09T03:22:46,42.805,6.029,CST-1368DR,8732,12216,15483,0.034,551
2019-07-09T03:25:48,42.805,6.029,CST-1368DR,8732,12216,15482,0.034,551
2019-07-09T03:28:49,42.805,6.029,CST-1368DR,8732,12215,15481,0.035,551
2019-07-09T03:31:50,42.805,6.029,CST-1368DR,8732,12215,15482,0.034,551
2019-07-09T03:34:52,42.805,6.029,CST-1368DR,8732,12216,15483,0.034,551
2019-07-09T03:37:53,42.805,6.029,CST-1368DR,8732,12214,15480,0.035,551
2019-07-09T03:40:55,42.805,6.029,CST-1368DR,8732,12213,15479,0.035,551
2019-07-09T03:43:56,42.805,6.029,CST-1368DR,8732,12217,15483,0.034,551
2019-07-09T03:46:57,42.805,6.029,CST-1368DR,8732,12214,15480,0.035,551
2019-07-09T03:49:59,42.805,6.029,CST-1368DR,8732,12218,15484,0.034,551
2019-07-09T03:53:00,42.805,6.029,CST-1368DR,8732,12217,15484,0.034,551
2019-07-09T03:56:02,42.805,6.029,CST-1368DR,8732,12216,15482,0.034,551
2019-07-09T03:59:03,42.805,6.029,CST-1368DR,8732,12216,15482,0.034,551
2019-07-09T04:02:04,42.805,6.029,CST-1368DR,8732,12216,15483,0.034,551
2019-07-09T04:05:06,42.805,6.029,CST-1368DR,8732,12215,15481,0.035,551
2019-07-09T04:08:07,42.805,6.029,CST-1368DR,8732,12215,15481,0.035,551
2019-07-09T04:11:09,42.805,6.029,CST-1368DR,8732,12216,15482,0.034,551
2019-07-09T04:14:10,42.805,6.029,CST-1368DR,8732,12214,15480,0.035,551
2019-07-09T04:17:12,42.805,6.029,CST-1368DR,8732,12213,15479,0.035,551
2019-07-09T04:20:13,42.805,6.029,CST-1368DR,8732,12217,15483,0.034,551
2019-07-09T04:23:14,42.805,6.029,CST-1368DR,8732,12216,15483,0.034,550
2019-07-09T04:26:16,42.805,6.029,CST-1368DR,8732,12212,15478,0.036,551
2019-07-09T04:29:17,42.805,6.029,CST-1368DR,8732,12217,15484,0.034,551
2019-07-09T04:32:19,42.805,6.029,CST-1368DR,8732,12215,15481,0.035,551
2019-07-09T04:35:20,42.805,6.029,CST-1368DR,8732,12214,15480,0.035,551
2019-07-09T04:38:21,42.805,6.029,CST-1368DR,8732,12216,15482,0.034,551
2019-07-09T04:41:23,42.805,6.029,CST-1368DR,8732,12215,15481,0.035,551
2019-07-09T04:44:24,42.805,6.029,CST-1368DR,8731,12213,15480,0.035,551
2019-07-09T04:47:26,42.805,6.029,CST-1368DR,8731,12213,15481,0.035,551
2019-07-09T04:50:27,42.805,6.029,CST-1368DR,8731,12216,15484,0.034,551
2019-07-09T04:53:28,42.805,6.029,CST-1368DR,8731,12214,15481,0.035,551
2019-07-09T04:56:30,42.805,6.029,CST-1368DR,8732,12216,15482,0.034,551
2019-07-09T04:59:31,42.805,6.029,CST-1368DR,8731,12216,15484,0.034,551
2019-07-09T05:02:33,42.805,6.029,CST-1368DR,8731,12211,15477,0.036,551
2019-07-09T05:05:34,42.805,6.029,CST-1368DR,8731,12213,15480,0.035,551
2019-07-09T05:08:36,42.805,6.029,CST-1368DR,8731,12216,15484,0.034,551
2019-07-09T05:11:37,42.805,6.029,CST-1368DR,8731,12213,15480,0.035,551
2019-07-09T05:14:38,42.805,6.029,CST-1368DR,8731,12216,15484,0.034,551
2019-07-09T05:17:40,42.805,6.029,CST-1368DR,8731,12212,15478,0.036,550
2019-07-09T05:20:41,42.805,6.029,CST-1368DR,8731,12213,15480,0.035,551
2019-07-09T05:23:43,42.805,6.029,CST-1368DR,8731,12197,15460,0.040,551
2019-07-09T05:26:44,42.805,6.029,CST-1368DR,8731,12215,15483,0.034,551
2019-07-09T05:29:45,42.805,6.029,CST-1368DR,8731,12215,15483,0.034,551
2019-07-09T05:32:47,42.805,6.029,CST-1368DR,8731,12213,15480,0.035,551
2019-07-09T05:35:48,42.805,6.029,CST-1368DR,8731,12215,15482,0.034,550
2019-07-09T05:38:50,42.805,6.029,CST-1368DR,8731,12213,15480,0.035,551
2019-07-09T05:41:51,42.805,6.029,CST-1368DR,8731,12215,15483,0.034,550
2019-07-09T05:44:52,42.805,6.029,CST-1368DR,8731,12215,15482,0.034,551
2019-07-09T05:47:54,42.805,6.029,CST-1368DR,8731,12210,15477,0.036,550
2019-07-09T05:50:55,42.805,6.029,CST-1368DR,8731,12213,15481,0.035,551
2019-07-09T05:53:57,42.805,6.029,CST-1368DR,8731,12213,15481,0.035,551
2019-07-09T05:56:58,42.805,6.029,CST-1368DR,8731,12214,15481,0.035,551
2019-07-09T05:59:59,42.805,6.029,CST-1368DR,8731,12214,15482,0.034,551
2019-07-09T06:03:01,42.805,6.029,CST-1368DR,8731,12213,15480,0.035,551
2019-07-09T06:06:02,42.805,6.029,CST-1368DR,8731,12214,15482,0.034,550
2019-07-09T06:09:04,42.805,6.029,CST-1368DR,8731,12209,15476,0.036,551
2019-07-09T06:12:05,42.805,6.029,CST-1368DR,8731,12213,15480,0.035,551
2019-07-09T06:15:07,42.805,6.029,CST-1368DR,8730,12189,15452,0.042,550
2019-07-09T06:18:08,42.805,6.029,CST-1368DR,8731,12214,15481,0.035,551
2019-07-09T06:21:09,42.805,6.029,CST-1368DR,8731,12213,15480,0.035,550
2019-07-09T06:24:11,42.805,6.029,CST-1368DR,8731,12212,15479,0.035,551
2019-07-09T06:27:12,42.805,6.029,CST-1368DR,8731,12213,15480,0.035,551
2019-07-09T06:30:14,42.805,6.029,CST-1368DR,8731,12212,15478,0.036,551
2019-07-09T06:33:15,42.805,6.029,CST-1368DR,8731,12214,15481,0.035,551
2019-07-09T06:36:16,42.805,6.029,CST-1368DR,8731,12211,15477,0.036,551
2019-07-09T06:39:18,42.805,6.029,CST-1368DR,8731,12212,15479,0.035,551
2019-07-09T06:42:19,42.805,6.029,CST-1368DR,8731,12212,15479,0.035,551
2019-07-09T06:45:21,42.805,6.029,CST-1368DR,8731,12212,15479,0.035,551
2019-07-09T06:48:22,42.805,6.029,CST-1368DR,8730,12205,15472,0.037,551
2019-07-09T06:51:23,42.805,6.029,CST-1368DR,8730,12208,15475,0.036,551
2019-07-09T06:54:25,42.805,6.029,CST-1368DR,8730,12211,15479,0.035,551
2019-07-09T06:57:26,42.805,6.029,CST-1368DR,8730,12212,15481,0.035,551
2019-07-09T07:00:28,42.805,6.029,CST-1368DR,8730,12210,15478,0.036,551
2019-07-09T07:03:29,42.805,6.029,CST-1368DR,8730,12209,15477,0.036,551
2019-07-09T07:06:30,42.805,6.029,CST-1368DR,8730,12206,15473,0.037,551
2019-07-09T07:09:32,42.805,6.029,CST-1368DR,8730,12210,15479,0.035,551
2019-07-09T07:12:33,42.805,6.029,CST-1368DR,8730,12211,15479,0.035,551
2019-07-09T07:15:35,42.805,6.029,CST-1368DR,8730,12214,15483,0.034,551
2019-07-09T07:18:36,42.805,6.029,CST-1368DR,8730,12207,15475,0.036,551
2019-07-09T07:21:38,42.805,6.029,CST-1368DR,8730,12214,15484,0.034,551
2019-07-09T07:24:39,42.805,6.029,CST-1368DR,8730,12209,15477,0.036,551
2019-07-09T07:27:40,42.805,6.029,CST-1368DR,8730,12212,15480,0.035,551
2019-07-09T07:30:42,42.805,6.029,CST-1368DR,8730,12211,15479,0.035,551
2019-07-09T07:33:43,42.805,6.029,CST-1368DR,8730,12211,15480,0.035,551
2019-07-09T07:36:45,42.805,6.029,CST-1368DR,8730,12211,15480,0.035,550
2019-07-09T07:39:46,42.805,6.029,CST-1368DR,8730,12207,15474,0.037,551
2019-07-09T07:42:47,42.805,6.029,CST-1368DR,8730,12204,15470,0.038,550
2019-07-09T07:45:49,42.805,6.029,CST-1368DR,8730,12206,15473,0.037,551
2019-07-09T07:48:50,42.805,6.029,CST-1368DR,8730,12199,15465,0.039,551
2019-07-09T07:51:52,42.805,6.029,CST-1368DR,8730,12210,15479,0.035,551
2019-07-09T07:54:53,42.805,6.029,CST-1368DR,8730,12212,15480,0.035,551
2019-07-09T07:57:54,42.805,6.029,CST-1368DR,8730,12209,15477,0.036,551
2019-07-09T08:00:56,42.805,6.029,CST-1368DR,8730,12209,15477,0.036,551
2019-07-09T08:03:57,42.805,6.029,CST-1368DR,8730,12211,15479,0.035,551
2019-07-09T08:06:59,42.805,6.029,CST-1368DR,8730,12211,15479,0.035,550
2019-07-09T08:10:00,42.805,6.029,CST-1368DR,8730,12209,15477,0.036,550
2019-07-09T08:13:02,42.805,6.029,CST-1368DR,8730,12213,15482,0.034,550
2019-07-09T08:16:03,42.805,6.029,CST-1368DR,8730,12212,15481,0.035,551
2019-07-09T08:19:04,42.805,6.029,CST-1368DR,8730,12212,15480,0.035,551
2019-07-09T08:22:06,42.805,6.029,CST-1368DR,8730,12213,15481,0.035,551
2019-07-09T08:25:07,42.805,6.029,CST-1368DR,8730,12213,15481,0.035,551
2019-07-09T08:28:09,42.805,6.029,CST-1368DR,8730,12212,15481,0.035,551
2019-07-09T08:31:10,42.805,6.029,CST-1368DR,8730,12213,15482,0.034,551
2019-07-09T08:34:11,42.805,6.029,CST-1368DR,8730,12209,15477,0.036,551
2019-07-09T08:37:13,42.805,6.029,CST-1368DR,8729,12212,15482,0.034,551
2019-07-09T08:40:14,42.805,6.029,CST-1368DR,8730,12213,15481,0.035,551
2019-07-09T08:43:16,42.805,6.029,CST-1368DR,8729,12212,15482,0.034,551
2019-07-09T08:46:17,42.805,6.029,CST-1368DR,8730,12208,15475,0.036,551
2019-07-09T08:49:18,42.805,6.029,CST-1368DR,8730,12212,15481,0.035,551
2019-07-09T08:52:20,42.805,6.029,CST-1368DR,8730,12212,15480,0.035,551
2019-07-09T08:55:21,42.805,6.029,CST-1368DR,8730,12208,15476,0.036,550
2019-07-09T08:58:23,42.805,6.029,CST-1368DR,8730,12211,15479,0.035,551
2019-07-09T09:01:24,42.805,6.029,CST-1368DR,8729,12209,15479,0.035,551
2019-07-09T09:04:25,42.805,6.029,CST-1368DR,8729,12210,15480,0.035,551
2019-07-09T09:07:27,42.805,6.029,CST-1368DR,8729,12211,15481,0.035,551
2019-07-09T09:10:28,42.805,6.029,CST-1368DR,8729,12209,15478,0.036,550
2019-07-09T09:13:30,42.805,6.029,CST-1368DR,8729,12209,15478,0.036,551
2019-07-09T09:16:31,42.805,6.029,CST-1368DR,8729,12210,15479,0.035,551
2019-07-09T09:19:33,42.805,6.029,CST-1368DR,8729,12210,15479,0.035,551
2019-07-09T09:22:34,42.805,6.029,CST-1368DR,8729,12212,15483,0.034,551
2019-07-09T09:25:35,42.805,6.029,CST-1368DR,8729,12208,15477,0.036,551
2019-07-09T09:28:37,42.805,6.029,CST-1368DR,8729,12206,15474,0.037,550
2019-07-09T09:31:38,42.805,6.029,CST-1368DR,8729,12203,15471,0.037,551
2019-07-09T09:34:40,42.805,6.029,CST-1368DR,8729,12211,15481,0.035,551
2019-07-09T09:37:41,42.805,6.029,CST-1368DR,8729,12212,15482,0.034,551
2019-07-09T09:40:42,42.805,6.029,CST-1368DR,8729,12208,15477,0.036,551
2019-07-09T09:43:44,42.805,6.029,CST-1368DR,8729,12212,15482,0.034,551
2019-07-09T09:46:45,42.805,6.029,CST-1368DR,8729,12211,15481,0.035,551
2019-07-09T09:49:47,42.805,6.029,CST-1368DR,8729,12211,15481,0.035,551
2019-07-09T09:52:48,42.805,6.029,CST-1368DR,8729,12210,15480,0.035,551
2019-07-09T09:55:49,42.805,6.029,CST-1368DR,8729,12209,15479,0.035,551
2019-07-09T09:58:51,42.805,6.029,CST-1368DR,8729,12211,15481,0.035,551
2019-07-09T10:01:52,42.805,6.029,CST-1368DR,8729,12209,15479,0.035,551
2019-07-09T10:04:54,42.805,6.029,CST-1368DR,8729,12210,15480,0.035,551
2019-07-09T10:07:55,42.805,6.029,CST-1368DR,8729,12209,15479,0.035,551
2019-07-09T10:10:56,42.805,6.029,CST-1368DR,8729,12209,15478,0.036,551
2019-07-09T10:13:58,42.805,6.029,CST-1368DR,8728,12207,15477,0.036,551
2019-07-09T10:16:59,42.805,6.029,CST-1368DR,8729,12210,15480,0.035,551
2019-07-09T10:20:01,42.805,6.029,CST-1368DR,8729,12208,15477,0.036,551
2019-07-09T10:23:02,42.805,6.029,CST-1368DR,8729,12209,15478,0.036,551
2019-07-09T10:26:04,42.805,6.029,CST-1368DR,8728,12208,15479,0.035,551
2019-07-09T10:29:05,42.805,6.029,CST-1368DR,8728,12208,15479,0.035,551
2019-07-09T10:32:06,42.805,6.029,CST-1368DR,8728,12210,15481,0.035,551
2019-07-09T10:35:08,42.805,6.029,CST-1368DR,8728,12209,15480,0.035,551
2019-07-09T10:38:09,42.805,6.029,CST-1368DR,8728,12207,15477,0.036,551
2019-07-09T10:41:11,42.805,6.029,CST-1368DR,8729,12210,15480,0.035,551
2019-07-09T10:44:12,42.805,6.029,CST-1368DR,8728,12210,15482,0.034,550
2019-07-09T10:47:13,42.805,6.029,CST-1368DR,8728,12206,15476,0.036,551
2019-07-09T10:50:15,42.805,6.029,CST-1368DR,8728,12204,15474,0.037,551
2019-07-09T10:53:16,42.805,6.029,CST-1368DR,8728,12209,15481,0.035,550
2019-07-09T10:56:18,42.805,6.029,CST-1368DR,8728,12211,15482,0.034,550
2019-07-09T10:59:19,42.805,6.029,CST-1368DR,8728,12209,15480,0.035,550
2019-07-09T11:02:20,42.805,6.029,CST-1368DR,8729,12211,15480,0.035,551
2019-07-09T11:05:22,42.805,6.029,CST-1368DR,8728,12208,15479,0.035,551
2019-07-09T11:08:23,42.805,6.029,CST-1368DR,8728,12210,15482,0.034,551
2019-07-09T11:11:25,42.805,6.029,CST-1368DR,8728,12208,15479,0.035,551
2019-07-09T11:14:26,42.805,6.029,CST-1368DR,8728,12210,15481,0.035,550
2019-07-09T11:17:28,42.805,6.029,CST-1368DR,8728,12209,15480,0.035,551
2019-07-09T11:20:29,42.805,6.029,CST-1368DR,8728,12206,15476,0.036,551
2019-07-09T11:23:30,42.805,6.029,CST-1368DR,8728,12208,15479,0.035,551
2019-07-09T11:26:32,42.805,6.029,CST-1368DR,8728,12209,15481,0.035,551
2019-07-09T11:29:33,42.805,6.029,CST-1368DR,8728,12207,15478,0.036,551
2019-07-09T11:32:35,42.805,6.029,CST-1368DR,8728,12208,15478,0.036,550
2019-07-09T11:35:36,42.805,6.029,CST-1368DR,8728,12206,15476,0.036,551
2019-07-09T11:38:37,42.805,6.029,CST-1368DR,8728,12205,15474,0.037,551
2019-07-09T11:41:39,42.805,6.029,CST-1368DR,8728,12205,15475,0.036,550
2019-07-09T11:44:40,42.805,6.029,CST-1368DR,8728,12194,15461,0.040,551
2019-07-09T11:47:42,42.805,6.029,CST-1368DR,8728,12205,15474,0.037,551
2019-07-09T11:50:43,42.805,6.029,CST-1368DR,8728,12205,15475,0.036,551
2019-07-09T11:53:44,42.805,6.029,CST-1368DR,8728,12203,15472,0.037,551
2019-07-09T11:56:46,42.805,6.029,CST-1368DR,8728,12207,15478,0.036,551
2019-07-09T11:59:47,42.805,6.029,CST-1368DR,8728,12205,15474,0.037,551
2019-07-09T12:02:49,42.805,6.029,CST-1368DR,8728,12207,15477,0.036,551
2019-07-09T12:05:50,42.805,6.029,CST-1368DR,8728,12209,15480,0.035,551
2019-07-09T12:08:51,42.805,6.029,CST-1368DR,8728,12207,15478,0.036,551
2019-07-09T12:11:53,42.805,6.029,CST-1368DR,8728,12206,15476,0.036,551
2019-07-09T12:14:54,42.805,6.029,CST-1368DR,8728,12206,15476,0.036,551
2019-07-09T12:17:56,42.805,6.029,CST-1368DR,8728,12210,15481,0.035,551
2019-07-09T12:20:57,42.805,6.029,CST-1368DR,8727,12209,15481,0.035,550
2019-07-09T12:23:59,42.805,6.029,CST-1368DR,8727,12209,15482,0.034,551
2019-07-09T12:27:00,42.805,6.029,CST-1368DR,8728,12208,15479,0.035,550
2019-07-09T12:30:01,42.805,6.029,CST-1368DR,8728,12208,15479,0.035,550
2019-07-09T12:33:03,42.805,6.029,CST-1368DR,8727,12206,15478,0.036,551
2019-07-09T12:36:04,42.805,6.029,CST-1368DR,8727,12208,15480,0.035,551
2019-07-09T12:39:06,42.805,6.029,CST-1368DR,8727,12205,15477,0.036,550
2019-07-09T12:42:07,42.805,6.029,CST-1368DR,8727,12208,15481,0.035,551
2019-07-09T12:45:08,42.805,6.029,CST-1368DR,8727,12207,15479,0.035,551
2019-07-09T12:48:10,42.805,6.029,CST-1368DR,8727,12205,15477,0.036,551
2019-07-09T12:51:11,42.805,6.029,CST-1368DR,8727,12208,15480,0.035,551
2019-07-09T12:54:13,42.805,6.029,CST-1368DR,8727,12205,15476,0.036,551
2019-07-09T12:57:14,42.805,6.029,CST-1368DR,8727,12208,15481,0.035,550
2019-07-09T13:00:15,42.805,6.029,CST-1368DR,8727,12196,15466,0.039,551
2019-07-09T13:03:17,42.805,6.029,CST-1368DR,8727,12187,15454,0.042,551
2019-07-09T13:06:18,42.805,6.029,CST-1368DR,8727,12199,15469,0.038,551
2019-07-09T13:09:20,42.805,6.029,CST-1368DR,8727,12204,15476,0.036,551
2019-07-09T13:12:21,42.805,6.029,CST-1368DR,8727,12202,15473,0.037,551
2019-07-09T13:15:22,42.805,6.029,CST-1368DR,8727,12196,15465,0.039,551
2019-07-09T13:18:24,42.805,6.029,CST-1368DR,8727,12203,15474,0.037,551
2019-07-09T13:21:25,42.805,6.029,CST-1368DR,8727,12202,15472,0.037,551
2019-07-09T13:24:27,42.805,6.029,CST-1368DR,8726,12199,15470,0.038,551
2019-07-09T13:27:28,42.805,6.029,CST-1368DR,8726,12202,15474,0.037,551
2019-07-09T13:30:30,42.805,6.029,CST-1368DR,8726,12202,15474,0.037,550
2019-07-09T13:33:31,42.805,6.029,CST-1368DR,8726,12205,15478,0.036,551
2019-07-09T13:36:32,42.805,6.029,CST-1368DR,8726,12202,15475,0.036,551
2019-07-09T13:39:34,42.805,6.029,CST-1368DR,8726,12208,15482,0.034,551
2019-07-09T13:42:35,42.805,6.029,CST-1368DR,8726,12194,15465,0.039,551
2019-07-09T13:45:37,42.805,6.029,CST-1368DR,8726,12202,15475,0.036,551
2019-07-09T13:48:38,42.805,6.029,CST-1368DR,8726,12206,15479,0.035,551
2019-07-09T13:51:39,42.805,6.029,CST-1368DR,8726,12203,15476,0.036,550
2019-07-09T13:54:41,42.805,6.029,CST-1368DR,8726,12200,15472,0.037,550
2019-07-09T13:57:42,42.805,6.029,CST-1368DR,8726,12203,15476,0.036,551
2019-07-09T14:00:44,42.805,6.029,CST-1368DR,8726,12203,15475,0.036,550
2019-07-09T14:03:45,42.805,6.029,CST-1368DR,8726,12204,15477,0.036,551
2019-07-09T14:06:46,42.805,6.029,CST-1368DR,8725,12199,15472,0.037,551
2019-07-09T14:09:48,42.805,6.029,CST-1368DR,8725,12196,15468,0.038,551
2019-07-09T14:12:49,42.805,6.029,CST-1368DR,8725,12204,15479,0.035,550
2019-07-09T14:15:51,42.805,6.029,CST-1368DR,8725,12199,15472,0.037,551
2019-07-09T14:18:52,42.805,6.029,CST-1368DR,8725,12188,15458,0.041,551
2019-07-09T14:21:54,42.805,6.029,CST-1368DR,8725,12197,15470,0.038,551
2019-07-09T14:24:55,42.805,6.029,CST-1368DR,8725,12204,15479,0.035,551
2019-07-09T14:27:56,42.805,6.029,CST-1368DR,8726,12205,15478,0.036,551
2019-07-09T14:30:58,42.805,6.029,CST-1368DR,8726,12206,15480,0.035,551
2019-07-09T14:33:59,42.805,6.029,CST-1368DR,8726,12204,15476,0.036,551
2019-07-09T14:37:01,42.805,6.029,CST-1368DR,8726,12207,15481,0.035,550
2019-07-09T14:40:02,42.805,6.029,CST-1368DR,8726,12201,15473,0.037,551
2019-07-09T14:43:03,42.805,6.029,CST-1368DR,8726,12206,15479,0.035,551
2019-07-09T14:46:05,42.805,6.029,CST-1368DR,8726,12199,15470,0.038,551
2019-07-09T14:49:06,42.805,6.029,CST-1368DR,8726,12207,15481,0.035,551
2019-07-09T14:52:08,42.805,6.029,CST-1368DR,8726,12198,15470,0.038,551
2019-07-09T14:55:09,42.805,6.029,CST-1368DR,8726,12202,15475,0.036,551
2019-07-09T14:58:10,42.805,6.029,CST-1368DR,8726,12200,15472,0.037,551
2019-07-09T15:01:12,42.805,6.029,CST-1368DR,8726,12202,15474,0.037,551
2019-07-09T15:04:13,42.805,6.029,CST-1368DR,8726,12197,15469,0.038,551
2019-07-09T15:07:15,42.805,6.029,CST-1368DR,8726,12198,15470,0.038,550
2019-07-09T15:10:16,42.805,6.029,CST-1368DR,8725,12202,15476,0.036,551
2019-07-09T15:13:17,42.805,6.029,CST-1368DR,8725,12202,15476,0.036,551
2019-07-09T15:16:19,42.805,6.029,CST-1368DR,8725,12199,15472,0.037,551
2019-07-09T15:19:20,42.805,6.029,CST-1368DR,8725,12205,15479,0.035,551
2019-07-09T15:22:22,42.805,6.029,CST-1368DR,8725,12206,15481,0.035,551
2019-07-09T15:25:23,42.805,6.029,CST-1368DR,8725,12204,15479,0.035,551
2019-07-09T15:28:25,42.805,6.029,CST-1368DR,8725,12198,15471,0.037,551
2019-07-09T15:31:26,42.805,6.029,CST-1368DR,8725,12198,15471,0.037,551
2019-07-09T15:34:27,42.805,6.029,CST-1368DR,8725,12206,15481,0.035,551
2019-07-09T15:37:29,42.805,6.029,CST-1368DR,8725,12203,15477,0.036,551
2019-07-09T15:40:30,42.805,6.029,CST-1368DR,8725,12206,15481,0.035,551
2019-07-09T15:43:32,42.805,6.029,CST-1368DR,8725,12206,15481,0.035,550
2019-07-09T15:46:33,42.805,6.029,CST-1368DR,8725,12203,15477,0.036,551
2019-07-09T15:49:34,42.805,6.029,CST-1368DR,8725,12202,15476,0.036,551
2019-07-09T15:52:36,42.805,6.029,CST-1368DR,8725,12198,15471,0.037,551
2019-07-09T15:55:37,42.805,6.029,CST-1368DR,8725,12201,15475,0.036,551
2019-07-09T15:58:39,42.805,6.029,CST-1368DR,8725,12200,15474,0.037,550
2019-07-09T16:01:40,42.805,6.029,CST-1368DR,8725,12204,15478,0.036,551
2019-07-09T16:04:41,42.805,6.029,CST-1368DR,8725,12199,15472,0.037,551
2019-07-09T16:07:43,42.805,6.029,CST-1368DR,8725,12204,15478,0.036,551
2019-07-09T16:10:44,42.805,6.029,CST-1368DR,8725,12204,15478,0.036,551
2019-07-09T16:13:46,42.805,6.029,CST-1368DR,8725,12203,15477,0.036,550
2019-07-09T16:16:47,42.805,6.029,CST-1368DR,8725,12202,15477,0.036,551
2019-07-09T16:19:48,42.805,6.029,CST-1368DR,8725,12204,15479,0.035,551
2019-07-09T16:22:50,42.805,6.029,CST-1368DR,8725,12196,15469,0.038,550
2019-07-09T16:25:51,42.805,6.029,CST-1368DR,8725,12205,15480,0.035,551
2019-07-09T16:28:53,42.805,6.029,CST-1368DR,8725,12205,15479,0.035,550
2019-07-09T16:31:54,42.805,6.029,CST-1368DR,8725,12206,15481,0.035,551
2019-07-09T16:34:56,42.805,6.029,CST-1368DR,8725,12203,15477,0.036,551